Estación de Codegua
Ultimos registro cada 15 minutos 26
| N° | Estación | Fecha / Hora | Temperatura | Humedad | Lluvia | Velocidad | Dirección | Radiación | Presion |
| 26 | Codegua | 05-05-2026 06:15 | 9,9 | 81,9 | 0 | 0 | 97 | 0,6 | 956,8 |
| 25 | Codegua | 05-05-2026 06:00 | 10,3 | 79,3 | 0 | 0 | 95 | 0,6 | 956,3 |
| 24 | Codegua | 05-05-2026 05:45 | 9,8 | 83,5 | 0 | 0 | 117 | 0,6 | 956,1 |
| 23 | Codegua | 05-05-2026 05:30 | 9,8 | 82,6 | 0 | 0 | 117 | 0,6 | 956,1 |
| 22 | Codegua | 05-05-2026 05:15 | 9,6 | 82,8 | 0 | 0 | 117 | 0,6 | 955,6 |
| 21 | Codegua | 05-05-2026 05:00 | 9,3 | 83,9 | 0 | 0 | 117 | 0,6 | 955,2 |
| 20 | Codegua | 05-05-2026 04:45 | 8,8 | 87,7 | 0 | 0 | 117 | 0,6 | 955,1 |
| 19 | Codegua | 05-05-2026 04:30 | 8,9 | 86,6 | 0 | 0 | 117 | 0,6 | 955,1 |
| 18 | Codegua | 05-05-2026 04:15 | 8,8 | 86,4 | 0 | 0 | 112 | 0,6 | 955 |
| 17 | Codegua | 05-05-2026 04:00 | 8,4 | 87,1 | 0 | 0 | 108 | 0,6 | 955 |
| 16 | Codegua | 05-05-2026 03:45 | 9,1 | 84,2 | 0 | 0 | 108 | 0,6 | 955,2 |
| 15 | Codegua | 05-05-2026 03:30 | 9,2 | 86,5 | 0 | 0 | 108 | 0,6 | 954,8 |
| 14 | Codegua | 05-05-2026 03:15 | 9 | 87,9 | 0 | 0 | 108 | 0,6 | 954,9 |
| 13 | Codegua | 05-05-2026 03:00 | 9,2 | 87,2 | 0 | 0 | 108 | 0,6 | 955,2 |
| 12 | Codegua | 05-05-2026 02:45 | 8,9 | 87,4 | 0 | 0 | 108 | 0,6 | 955,3 |
| 11 | Codegua | 05-05-2026 02:30 | 9 | 87,6 | 0 | 0 | 108 | 0,6 | 955,5 |
| 10 | Codegua | 05-05-2026 02:15 | 9,3 | 85,9 | 0 | 0 | 108 | 0,6 | 955,6 |
| 9 | Codegua | 05-05-2026 02:00 | 9,2 | 86,5 | 0 | 0 | 108 | 0,6 | 955,8 |
| 8 | Codegua | 05-05-2026 01:45 | 9 | 85,9 | 0 | 0 | 108 | 0,6 | 955,9 |
| 7 | Codegua | 05-05-2026 01:30 | 8,9 | 85,8 | 0 | 0 | 108 | 0,6 | 955,9 |
| 6 | Codegua | 05-05-2026 01:15 | 9,1 | 84,5 | 0 | 0 | 108 | 0,6 | 956 |
| 5 | Codegua | 05-05-2026 01:00 | 8,3 | 87,1 | 0 | 0 | 108 | 0,6 | 956,2 |
| 4 | Codegua | 05-05-2026 00:45 | 8,4 | 86,6 | 0 | 0 | 108 | 0,6 | 956,5 |
| 3 | Codegua | 05-05-2026 00:30 | 8,2 | 87,5 | 0 | 0 | 108 | 0,6 | 956,7 |
| 2 | Codegua | 05-05-2026 00:15 | 8,1 | 87,2 | 0 | 0 | 108 | 0,6 | 956,3 |
| 1 | Codegua | 05-05-2026 00:00 | 7,4 | 89,2 | 0 | 0 | 108 | 0,6 | 956,4 |